Location: Byszew
(52.1813°N, 19.2693°E)
Time: 14:36:18
(UTC+00:00)

Helios 1A Rocket - Pass Details

Date: 03 March 2021
Orbit: 563 x 585 km, 98.3° (Epoch: 13 April)

Event Time Altitude Azimuth Distance (km) Brightness Sun altitude
Rises 17:39:00 0° 166° (SSE) 2,768 6.2 -11.9°
Reaches altitude 10° 17:41:09 10° 167° (SSE) 1,871 5.4 -12.3°
Maximum altitude 17:45:12 80° 254° (WSW) 584 3.0 -12.9°
Drops below altitude 10° 17:49:16 10° 343° (NNW) 1,876 5.8 -13.5°
Sets 17:51:25 0° 345° (NNW) 2,776 6.7 -13.8°
